TimeCST,TemperatureF,Dew PointF,Humidity,Sea Level PressureIn,VisibilityMPH,Wind Direction,Wind SpeedMPH,Gust SpeedMPH,PrecipitationIn,Events,Conditions,WindDirDegrees,DateUTC
12:53 AM,39.9,37.0,89,30.24,10.0,Calm,Calm,-,N/A,,Clear,0,2013-01-22 06:53:00
1:53 AM,39.0,37.0,93,30.24,10.0,NNW,3.5,-,N/A,,Clear,340,2013-01-22 07:53:00
2:53 AM,39.9,37.0,89,30.25,10.0,North,5.8,-,N/A,,Clear,350,2013-01-22 08:53:00
3:53 AM,43.0,37.0,80,30.25,10.0,North,5.8,-,N/A,,Clear,350,2013-01-22 09:53:00
4:53 AM,44.1,37.0,76,30.26,10.0,NNW,4.6,-,N/A,,Clear,340,2013-01-22 10:53:00
5:53 AM,39.0,36.0,89,30.28,10.0,North,3.5,-,N/A,,Clear,350,2013-01-22 11:53:00
6:53 AM,39.9,36.0,86,30.28,10.0,Calm,Calm,-,N/A,,Partly Cloudy,0,2013-01-22 12:53:00
7:53 AM,39.9,37.0,89,30.29,10.0,Calm,Calm,-,N/A,,Scattered Clouds,0,2013-01-22 13:53:00
8:53 AM,50.0,39.0,66,30.30,10.0,Calm,Calm,-,N/A,,Mostly Cloudy,0,2013-01-22 14:53:00
9:53 AM,51.1,39.0,63,30.32,10.0,Calm,Calm,-,N/A,,Mostly Cloudy,0,2013-01-22 15:53:00
10:53 AM,57.0,41.0,55,30.32,10.0,North,3.5,-,N/A,,Scattered Clouds,360,2013-01-22 16:53:00
11:53 AM,64.0,46.0,52,30.30,10.0,SSW,3.5,-,N/A,,Scattered Clouds,200,2013-01-22 17:53:00
12:53 PM,69.1,48.9,49,30.25,10.0,South,12.7,20.7,N/A,,Scattered Clouds,180,2013-01-22 18:53:00
1:53 PM,71.1,48.9,45,30.21,10.0,South,10.4,-,N/A,,Clear,170,2013-01-22 19:53:00
2:53 PM,71.1,48.9,45,30.20,10.0,SSW,9.2,18.4,N/A,,Scattered Clouds,210,2013-01-22 20:53:00
3:53 PM,72.0,50.0,46,30.20,10.0,South,9.2,-,N/A,,Scattered Clouds,190,2013-01-22 21:53:00
4:53 PM,70.0,48.9,47,30.20,10.0,South,8.1,-,N/A,,Scattered Clouds,190,2013-01-22 22:53:00
5:53 PM,66.0,48.9,54,30.20,10.0,South,5.8,-,N/A,,Scattered Clouds,170,2013-01-22 23:53:00
6:53 PM,57.9,48.0,70,30.21,10.0,South,4.6,-,N/A,,Scattered Clouds,170,2013-01-23 00:53:00
7:53 PM,57.9,48.9,72,30.22,10.0,South,6.9,-,N/A,,Mostly Cloudy,170,2013-01-23 01:53:00
8:53 PM,60.1,48.9,67,30.22,10.0,South,11.5,-,N/A,,Partly Cloudy,170,2013-01-23 02:53:00
9:53 PM,59.0,48.0,67,30.24,10.0,South,10.4,-,N/A,,Partly Cloudy,180,2013-01-23 03:53:00
10:53 PM,55.0,48.0,77,30.26,10.0,South,8.1,-,N/A,,Clear,180,2013-01-23 04:53:00
11:53 PM,51.1,46.9,86,30.28,10.0,SSW,5.8,-,N/A,,Clear,200,2013-01-23 05:53:00